���t,����,�O�C���x,�����t���O,�O�C���Ύ��x,�����t���O,���ԉ��x,�����t���O,���ԑ��Ύ��x,�����t���O,�g�C������,�����t���O,�L�b�`�����x,�����t���O,��󒲎����x,�����t���O
2003/12/1,0:00,14.2 ,0,54.0 ,0,19.3 ,0,54.2 ,0,17.3 ,0,18.9 ,0,14.7 ,0
2003/12/1,0:15,14.2 ,0,56.0 ,0,19.3 ,0,53.9 ,0,17.3 ,0,18.9 ,0,14.7 ,0
2003/12/1,0:30,14.2 ,0,56.0 ,0,19.4 ,0,53.5 ,0,17.3 ,0,19.0 ,0,14.7 ,0
2003/12/1,0:45,14.2 ,0,56.0 ,0,19.4 ,0,50.3 ,0,17.6 ,0,18.9 ,0,14.7 ,0
2003/12/1,1:00,14.2 ,0,56.0 ,0,19.3 ,0,51.8 ,0,17.6 ,0,18.6 ,0,14.8 ,0
2003/12/1,1:15,14.2 ,0,55.0 ,0,19.1 ,0,52.4 ,0,17.6 ,0,18.2 ,0,15.6 ,0
2003/12/1,1:30,14.2 ,0,57.0 ,0,19.0 ,0,52.9 ,0,17.6 ,0,17.8 ,0,15.9 ,0
2003/12/1,1:45,13.9 ,0,61.0 ,0,18.9 ,0,56.2 ,0,17.6 ,0,17.6 ,0,16.1 ,0
2003/12/1,2:00,14.0 ,0,59.0 ,0,18.8 ,0,55.8 ,0,17.6 ,0,17.5 ,0,15.9 ,0
2003/12/1,2:15,13.9 ,0,59.0 ,0,18.7 ,0,58.4 ,0,17.6 ,0,17.5 ,0,16.0 ,0
2003/12/1,2:30,13.9 ,0,56.0 ,0,18.6 ,0,59.1 ,0,17.6 ,0,17.4 ,0,15.9 ,0
2003/12/1,2:45,13.9 ,0,56.0 ,0,18.5 ,0,59.2 ,0,17.6 ,0,17.2 ,0,15.9 ,0
2003/12/1,3:00,13.8 ,0,54.0 ,0,18.4 ,0,58.8 ,0,17.6 ,0,17.0 ,0,15.8 ,0
2003/12/1,3:15,13.9 ,0,53.0 ,0,18.2 ,0,59.0 ,0,17.6 ,0,16.9 ,0,15.8 ,0
2003/12/1,3:30,13.9 ,0,53.0 ,0,18.2 ,0,59.4 ,0,17.6 ,0,16.7 ,0,15.8 ,0
2003/12/1,3:45,13.7 ,0,55.0 ,0,18.1 ,0,59.2 ,0,17.6 ,0,16.6 ,0,15.7 ,0
2003/12/1,4:00,13.8 ,0,52.0 ,0,18.0 ,0,59.4 ,0,17.6 ,0,16.5 ,0,15.7 ,0
2003/12/1,4:15,13.7 ,0,54.0 ,0,17.9 ,0,59.5 ,0,17.6 ,0,16.5 ,0,15.7 ,0
2003/12/1,4:30,13.7 ,0,54.0 ,0,17.8 ,0,60.3 ,0,17.6 ,0,16.4 ,0,15.7 ,0
2003/12/1,4:45,13.7 ,0,54.0 ,0,17.8 ,0,60.0 ,0,17.6 ,0,16.3 ,0,15.6 ,0
2003/12/1,5:00,13.7 ,0,54.0 ,0,17.7 ,0,59.9 ,0,17.6 ,0,16.2 ,0,15.6 ,0
2003/12/1,5:15,13.5 ,0,55.0 ,0,17.6 ,0,60.8 ,0,17.6 ,0,16.1 ,0,15.6 ,0
2003/12/1,5:30,13.5 ,0,53.0 ,0,17.5 ,0,60.6 ,0,17.6 ,0,16.0 ,0,15.5 ,0
2003/12/1,5:45,13.6 ,0,53.0 ,0,17.4 ,0,60.1 ,0,17.6 ,0,16.0 ,0,15.5 ,0
2003/12/1,6:00,13.5 ,0,53.0 ,0,17.3 ,0,60.6 ,0,17.6 ,0,15.9 ,0,15.4 ,0
2003/12/1,6:15,13.5 ,0,54.0 ,0,17.1 ,0,60.0 ,0,17.6 ,0,15.8 ,0,15.4 ,0
2003/12/1,6:30,13.5 ,0,54.0 ,0,17.0 ,0,60.4 ,0,17.6 ,0,15.8 ,0,15.4 ,0
2003/12/1,6:45,13.6 ,0,55.0 ,0,16.9 ,0,60.2 ,0,17.6 ,0,15.7 ,0,15.3 ,0
2003/12/1,7:00,13.4 ,0,56.0 ,0,16.8 ,0,60.4 ,0,17.6 ,0,15.6 ,0,15.3 ,0
2003/12/1,7:15,13.4 ,0,56.0 ,0,16.8 ,0,60.4 ,0,17.6 ,0,15.6 ,0,15.3 ,0
2003/12/1,7:30,13.5 ,0,58.0 ,0,16.7 ,0,60.4 ,0,17.6 ,0,15.5 ,0,15.2 ,0
2003/12/1,7:45,13.6 ,0,60.0 ,0,16.6 ,0,60.6 ,0,17.6 ,0,15.5 ,0,15.2 ,0
2003/12/1,8:00,13.6 ,0,61.0 ,0,16.6 ,0,60.7 ,0,17.6 ,0,15.4 ,0,15.3 ,0
2003/12/1,8:15,13.6 ,0,62.0 ,0,16.5 ,0,61.1 ,0,17.6 ,0,15.4 ,0,15.3 ,0
2003/12/1,8:30,13.8 ,0,62.0 ,0,16.8 ,0,65.0 ,0,17.7 ,0,15.6 ,0,15.3 ,0
2003/12/1,8:45,13.9 ,0,62.0 ,0,17.3 ,0,64.4 ,0,17.7 ,0,16.7 ,0,15.3 ,0
2003/12/1,9:00,14.1 ,0,63.0 ,0,17.7 ,0,62.1 ,0,17.4 ,0,17.2 ,0,15.8 ,0
2003/12/1,9:15,14.0 ,0,61.0 ,0,17.7 ,0,59.3 ,0,17.5 ,0,17.3 ,0,16.2 ,0
2003/12/1,9:30,14.2 ,0,60.0 ,0,17.9 ,0,60.3 ,0,17.5 ,0,17.8 ,0,16.3 ,0
2003/12/1,9:45,14.3 ,0,59.0 ,0,17.9 ,0,60.9 ,0,17.5 ,0,17.7 ,0,16.6 ,0
2003/12/1,10:00,14.7 ,0,58.0 ,0,18.1 ,0,62.6 ,0,17.7 ,0,17.7 ,0,16.5 ,0
2003/12/1,10:15,14.9 ,0,57.0 ,0,18.1 ,0,62.8 ,0,17.6 ,0,17.6 ,0,16.7 ,0
2003/12/1,10:30,15.1 ,0,56.0 ,0,18.2 ,0,63.2 ,0,17.7 ,0,17.6 ,0,17.1 ,0
2003/12/1,10:45,14.9 ,0,57.0 ,0,18.2 ,0,62.8 ,0,17.7 ,0,17.5 ,0,17.1 ,0
2003/12/1,11:00,15.3 ,0,54.0 ,0,18.2 ,0,62.3 ,0,17.6 ,0,17.5 ,0,17.1 ,0
2003/12/1,11:15,15.1 ,0,55.0 ,0,18.2 ,0,61.8 ,0,17.4 ,0,17.4 ,0,17.1 ,0
2003/12/1,11:30,15.3 ,0,53.0 ,0,18.2 ,0,61.5 ,0,17.4 ,0,17.4 ,0,17.1 ,0
2003/12/1,11:45,15.3 ,0,53.0 ,0,18.2 ,0,61.1 ,0,17.4 ,0,17.3 ,0,17.0 ,0
2003/12/1,12:00,15.1 ,0,53.0 ,0,18.3 ,0,60.8 ,0,17.4 ,0,17.3 ,0,17.0 ,0
2003/12/1,12:15,15.4 ,0,52.0 ,0,18.3 ,0,60.5 ,0,17.4 ,0,17.3 ,0,17.1 ,0
2003/12/1,12:30,15.9 ,0,46.0 ,0,18.3 ,0,60.3 ,0,17.4 ,0,17.2 ,0,17.0 ,0
2003/12/1,12:45,15.8 ,0,48.0 ,0,18.4 ,0,59.8 ,0,17.4 ,0,17.2 ,0,17.0 ,0
2003/12/1,13:00,15.8 ,0,49.0 ,0,18.6 ,0,59.7 ,0,17.4 ,0,17.2 ,0,17.1 ,0
2003/12/1,13:15,15.7 ,0,50.0 ,0,18.8 ,0,59.4 ,0,17.4 ,0,17.4 ,0,17.2 ,0
2003/12/1,13:30,15.9 ,0,47.0 ,0,19.0 ,0,59.0 ,0,17.4 ,0,17.5 ,0,17.4 ,0
2003/12/1,13:45,15.7 ,0,48.0 ,0,19.1 ,0,58.5 ,0,17.5 ,0,17.6 ,0,17.5 ,0
2003/12/1,14:00,15.6 ,0,51.0 ,0,19.3 ,0,58.0 ,0,17.5 ,0,17.7 ,0,17.5 ,0
2003/12/1,14:15,15.7 ,0,51.0 ,0,19.4 ,0,57.6 ,0,17.5 ,0,17.8 ,0,17.7 ,0
2003/12/1,14:30,15.6 ,0,52.0 ,0,19.5 ,0,57.1 ,0,17.5 ,0,17.8 ,0,17.7 ,0
2003/12/1,14:45,15.4 ,0,52.0 ,0,19.5 ,0,56.6 ,0,17.5 ,0,17.8 ,0,17.8 ,0
2003/12/1,15:00,15.4 ,0,50.0 ,0,19.6 ,0,56.1 ,0,17.5 ,0,17.9 ,0,17.8 ,0
2003/12/1,15:15,15.4 ,0,50.0 ,0,19.5 ,0,55.8 ,0,17.5 ,0,17.9 ,0,17.8 ,0
2003/12/1,15:30,15.1 ,0,51.0 ,0,19.4 ,0,55.5 ,0,17.5 ,0,17.9 ,0,17.8 ,0
2003/12/1,15:45,14.9 ,0,50.0 ,0,19.4 ,0,55.4 ,0,17.5 ,0,17.9 ,0,17.8 ,0
2003/12/1,16:00,15.1 ,0,52.0 ,0,19.4 ,0,54.4 ,0,17.6 ,0,17.8 ,0,17.7 ,0
2003/12/1,16:15,14.8 ,0,53.0 ,0,19.3 ,0,54.4 ,0,17.6 ,0,17.7 ,0,17.6 ,0
2003/12/1,16:30,14.8 ,0,53.0 ,0,19.2 ,0,54.1 ,0,17.6 ,0,17.6 ,0,17.5 ,0
2003/12/1,16:45,14.6 ,0,52.0 ,0,19.0 ,0,54.4 ,0,17.6 ,0,17.5 ,0,17.4 ,0
2003/12/1,17:00,14.7 ,0,52.0 ,0,18.9 ,0,54.4 ,0,17.6 ,0,17.3 ,0,17.3 ,0
2003/12/1,17:15,14.5 ,0,51.0 ,0,18.8 ,0,55.3 ,0,17.6 ,0,17.2 ,0,17.2 ,0
2003/12/1,17:30,14.5 ,0,50.0 ,0,18.7 ,0,55.2 ,0,17.6 ,0,17.1 ,0,17.1 ,0
2003/12/1,17:45,14.5 ,0,48.0 ,0,18.6 ,0,55.4 ,0,17.7 ,0,17.0 ,0,17.0 ,0
2003/12/1,18:00,14.5 ,0,52.0 ,0,18.5 ,0,55.8 ,0,17.7 ,0,16.8 ,0,16.8 ,0
2003/12/1,18:15,14.5 ,0,53.0 ,0,18.4 ,0,55.9 ,0,17.7 ,0,16.7 ,0,16.7 ,0
2003/12/1,18:30,14.5 ,0,51.0 ,0,18.3 ,0,55.8 ,0,17.7 ,0,16.6 ,0,16.7 ,0
2003/12/1,18:45,14.4 ,0,53.0 ,0,18.2 ,0,56.0 ,0,17.7 ,0,16.5 ,0,16.6 ,0
2003/12/1,19:00,14.4 ,0,52.0 ,0,18.2 ,0,56.2 ,0,17.7 ,0,16.5 ,0,16.5 ,0
2003/12/1,19:15,14.4 ,0,54.0 ,0,18.2 ,0,55.8 ,0,17.7 ,0,16.5 ,0,16.7 ,0
2003/12/1,19:30,14.5 ,0,53.0 ,0,18.1 ,0,56.2 ,0,17.8 ,0,16.5 ,0,16.7 ,0
2003/12/1,19:45,14.5 ,0,55.0 ,0,18.0 ,0,56.6 ,0,17.6 ,0,16.5 ,0,16.6 ,0
2003/12/1,20:00,14.5 ,0,53.0 ,0,18.0 ,0,57.0 ,0,17.6 ,0,16.5 ,0,16.5 ,0
2003/12/1,20:15,14.5 ,0,54.0 ,0,18.3 ,0,59.2 ,0,17.7 ,0,17.0 ,0,16.4 ,0
2003/12/1,20:30,14.5 ,0,54.0 ,0,18.3 ,0,57.5 ,0,17.5 ,0,17.1 ,0,16.4 ,0
2003/12/1,20:45,14.4 ,0,55.0 ,0,18.2 ,0,56.9 ,0,17.5 ,0,16.9 ,0,16.4 ,0
2003/12/1,21:00,14.4 ,0,53.0 ,0,18.1 ,0,56.7 ,0,17.5 ,0,16.7 ,0,16.4 ,0
2003/12/1,21:15,14.3 ,0,54.0 ,0,18.3 ,0,59.6 ,0,17.6 ,0,16.9 ,0,16.4 ,0
2003/12/1,21:30,14.3 ,0,54.0 ,0,18.7 ,0,60.9 ,0,17.6 ,0,17.8 ,0,16.3 ,0
2003/12/1,21:45,14.2 ,0,55.0 ,0,19.0 ,0,60.7 ,0,17.6 ,0,18.3 ,0,16.3 ,0
2003/12/1,22:00,14.2 ,0,55.0 ,0,19.2 ,0,60.0 ,0,17.6 ,0,18.8 ,0,16.3 ,0
2003/12/1,22:15,14.1 ,0,54.0 ,0,19.4 ,0,59.7 ,0,17.6 ,0,19.1 ,0,16.3 ,0
2003/12/1,22:30,14.0 ,0,55.0 ,0,19.7 ,0,59.5 ,0,17.6 ,0,19.4 ,0,16.4 ,0
2003/12/1,22:45,14.1 ,0,55.0 ,0,19.8 ,0,57.4 ,0,17.6 ,0,19.4 ,0,16.4 ,0
2003/12/1,23:00,14.1 ,0,55.0 ,0,19.8 ,0,58.1 ,0,17.6 ,0,19.3 ,0,16.5 ,0
2003/12/1,23:15,14.1 ,0,54.0 ,0,20.1 ,0,58.8 ,0,17.6 ,0,19.7 ,0,16.5 ,0
2003/12/1,23:30,14.1 ,0,54.0 ,0,20.2 ,0,58.5 ,0,17.6 ,0,19.9 ,0,16.7 ,0
2003/12/1,23:45,14.1 ,0,55.0 ,0,20.3 ,0,57.3 ,0,17.4 ,0,20.0 ,0,16.9 ,0
2003/12/2,0:00,14.0 ,0,55.0 ,0,20.4 ,0,56.7 ,0,17.4 ,0,20.1 ,0,17.1 ,0
2003/12/2,0:15,14.0 ,0,55.0 ,0,20.2 ,0,57.2 ,0,17.4 ,0,19.6 ,0,17.1 ,0
2003/12/2,0:30,14.0 ,0,55.0 ,0,20.0 ,0,56.7 ,0,17.4 ,0,19.2 ,0,17.0 ,0
2003/12/2,0:45,13.9 ,0,55.0 ,0,19.6 ,0,55.4 ,0,17.4 ,0,18.8 ,0,16.9 ,0
2003/12/2,1:00,13.9 ,0,53.0 ,0,19.5 ,0,55.6 ,0,17.4 ,0,18.5 ,0,16.8 ,0
2003/12/2,1:15,13.8 ,0,54.0 ,0,19.2 ,0,55.1 ,0,17.4 ,0,18.2 ,0,16.7 ,0
2003/12/2,1:30,13.7 ,0,55.0 ,0,19.1 ,0,55.4 ,0,17.4 ,0,18.0 ,0,16.9 ,0
2003/12/2,1:45,13.8 ,0,54.0 ,0,19.0 ,0,55.5 ,0,17.4 ,0,17.9 ,0,16.9 ,0
2003/12/2,2:00,13.9 ,0,54.0 ,0,18.9 ,0,55.8 ,0,17.4 ,0,17.7 ,0,17.1 ,0
2003/12/2,2:15,13.8 ,0,53.0 ,0,18.7 ,0,56.8 ,0,17.4 ,0,17.6 ,0,16.9 ,0
2003/12/2,2:30,13.9 ,0,55.0 ,0,18.5 ,0,57.2 ,0,17.4 ,0,17.3 ,0,16.8 ,0
2003/12/2,2:45,13.8 ,0,54.0 ,0,18.4 ,0,57.4 ,0,17.4 ,0,17.2 ,0,16.8 ,0
2003/12/2,3:00,13.7 ,0,53.0 ,0,18.3 ,0,57.8 ,0,17.4 ,0,17.0 ,0,16.7 ,0
2003/12/2,3:15,13.8 ,0,54.0 ,0,18.2 ,0,57.9 ,0,17.4 ,0,16.9 ,0,16.7 ,0
2003/12/2,3:30,13.6 ,0,52.0 ,0,18.0 ,0,57.8 ,0,17.5 ,0,16.8 ,0,16.6 ,0
2003/12/2,3:45,13.6 ,0,53.0 ,0,17.9 ,0,57.9 ,0,17.5 ,0,16.6 ,0,16.5 ,0
2003/12/2,4:00,13.5 ,0,55.0 ,0,17.8 ,0,57.9 ,0,17.5 ,0,16.5 ,0,16.4 ,0
2003/12/2,4:15,13.4 ,0,55.0 ,0,17.7 ,0,58.0 ,0,17.5 ,0,16.4 ,0,16.3 ,0
2003/12/2,4:30,13.4 ,0,56.0 ,0,17.6 ,0,57.5 ,0,17.5 ,0,16.3 ,0,16.2 ,0
2003/12/2,4:45,13.5 ,0,56.0 ,0,17.5 ,0,57.4 ,0,17.5 ,0,16.2 ,0,16.2 ,0
2003/12/2,5:00,13.3 ,0,56.0 ,0,17.4 ,0,57.5 ,0,17.5 ,0,16.2 ,0,16.1 ,0
2003/12/2,5:15,13.2 ,0,57.0 ,0,17.3 ,0,57.5 ,0,17.5 ,0,16.1 ,0,16.0 ,0
2003/12/2,5:30,13.2 ,0,57.0 ,0,17.2 ,0,57.5 ,0,17.5 ,0,16.0 ,0,16.0 ,0
2003/12/2,5:45,13.3 ,0,57.0 ,0,17.1 ,0,57.7 ,0,17.5 ,0,15.9 ,0,15.9 ,0
2003/12/2,6:00,13.3 ,0,57.0 ,0,17.0 ,0,57.8 ,0,17.5 ,0,15.9 ,0,15.9 ,0
2003/12/2,6:15,13.3 ,0,58.0 ,0,16.9 ,0,58.0 ,0,17.5 ,0,15.8 ,0,15.8 ,0
2003/12/2,6:30,13.3 ,0,58.0 ,0,16.9 ,0,58.1 ,0,17.5 ,0,15.7 ,0,15.8 ,0
2003/12/2,6:45,13.3 ,0,59.0 ,0,16.8 ,0,58.2 ,0,17.5 ,0,15.7 ,0,15.7 ,0
2003/12/2,7:00,13.3 ,0,59.0 ,0,16.8 ,0,58.3 ,0,17.5 ,0,15.7 ,0,15.7 ,0
2003/12/2,7:15,13.2 ,0,59.0 ,0,16.7 ,0,58.6 ,0,17.5 ,0,15.7 ,0,15.7 ,0
2003/12/2,7:30,13.4 ,0,58.0 ,0,16.7 ,0,58.8 ,0,17.5 ,0,15.6 ,0,15.7 ,0
2003/12/2,7:45,13.5 ,0,58.0 ,0,16.6 ,0,59.0 ,0,17.5 ,0,15.6 ,0,15.6 ,0
2003/12/2,8:00,13.6 ,0,58.0 ,0,16.6 ,0,59.2 ,0,17.5 ,0,15.6 ,0,15.6 ,0
2003/12/2,8:15,13.6 ,0,59.0 ,0,16.5 ,0,59.4 ,0,17.5 ,0,15.6 ,0,15.6 ,0
2003/12/2,8:30,13.9 ,0,58.0 ,0,16.5 ,0,59.5 ,0,17.5 ,0,15.6 ,0,15.6 ,0
2003/12/2,8:45,14.0 ,0,58.0 ,0,16.7 ,0,61.4 ,0,17.4 ,0,15.7 ,0,15.7 ,0
2003/12/2,9:00,14.0 ,0,56.0 ,0,17.2 ,0,61.7 ,0,17.4 ,0,17.1 ,0,15.7 ,0
2003/12/2,9:15,14.1 ,0,55.0 ,0,17.7 ,0,63.7 ,0,17.4 ,0,18.1 ,0,15.8 ,0
2003/12/2,9:30,14.4 ,0,54.0 ,0,18.0 ,0,62.2 ,0,17.4 ,0,18.4 ,0,16.5 ,0
2003/12/2,9:45,14.5 ,0,55.0 ,0,18.3 ,0,62.7 ,0,17.4 ,0,18.7 ,0,16.9 ,0
2003/12/2,10:00,14.7 ,0,54.0 ,0,18.5 ,0,61.5 ,0,17.4 ,0,19.0 ,0,17.2 ,0
2003/12/2,10:15,14.8 ,0,54.0 ,0,18.7 ,0,60.1 ,0,17.6 ,0,19.3 ,0,17.0 ,0
2003/12/2,10:30,14.8 ,0,54.0 ,0,18.9 ,0,58.5 ,0,17.6 ,0,19.5 ,0,16.8 ,0
2003/12/2,10:45,15.1 ,0,54.0 ,0,19.1 ,0,58.5 ,0,17.6 ,0,19.6 ,0,16.8 ,0
2003/12/2,11:00,15.3 ,0,53.0 ,0,19.0 ,0,57.8 ,0,17.5 ,0,19.3 ,0,16.7 ,0
2003/12/2,11:15,15.6 ,0,53.0 ,0,19.0 ,0,57.9 ,0,17.5 ,0,19.2 ,0,16.7 ,0
2003/12/2,11:30,16.0 ,0,50.0 ,0,19.0 ,0,57.4 ,0,17.5 ,0,19.1 ,0,16.8 ,0
2003/12/2,11:45,15.6 ,0,52.0 ,0,19.2 ,0,57.9 ,0,17.5 ,0,19.1 ,0,16.8 ,0
2003/12/2,12:00,15.2 ,0,54.0 ,0,19.4 ,0,56.4 ,0,17.5 ,0,19.5 ,0,16.8 ,0
2003/12/2,12:15,15.3 ,0,54.0 ,0,19.5 ,0,53.0 ,0,17.3 ,0,19.7 ,0,17.0 ,0
2003/12/2,12:30,15.4 ,0,54.0 ,0,19.3 ,0,52.2 ,0,17.3 ,0,19.4 ,0,17.4 ,0
2003/12/2,12:45,15.4 ,0,54.0 ,0,19.2 ,0,52.2 ,0,17.3 ,0,19.4 ,0,17.7 ,0
2003/12/2,13:00,15.7 ,0,53.0 ,0,19.2 ,0,51.9 ,0,17.3 ,0,19.3 ,0,17.8 ,0
2003/12/2,13:15,16.3 ,0,51.0 ,0,19.1 ,0,51.8 ,0,17.3 ,0,19.1 ,0,17.9 ,0
2003/12/2,13:30,16.1 ,0,52.0 ,0,19.0 ,0,52.2 ,0,17.3 ,0,19.0 ,0,17.8 ,0
2003/12/2,13:45,16.1 ,0,51.0 ,0,19.1 ,0,52.2 ,0,17.3 ,0,19.0 ,0,17.9 ,0
2003/12/2,14:00,15.9 ,0,50.0 ,0,19.1 ,0,52.8 ,0,17.3 ,0,19.0 ,0,18.1 ,0
2003/12/2,14:15,15.9 ,0,49.0 ,0,19.2 ,0,51.3 ,0,17.3 ,0,18.9 ,0,18.2 ,0
2003/12/2,14:30,16.2 ,0,49.0 ,0,18.9 ,0,49.4 ,0,17.3 ,0,18.5 ,0,18.0 ,0
2003/12/2,14:45,16.3 ,0,49.0 ,0,18.9 ,0,51.1 ,0,17.3 ,0,18.8 ,0,17.8 ,0
2003/12/2,15:00,16.0 ,0,51.0 ,0,18.9 ,0,51.0 ,0,17.3 ,0,18.6 ,0,17.8 ,0
2003/12/2,15:15,15.8 ,0,51.0 ,0,18.8 ,0,52.0 ,0,17.3 ,0,18.5 ,0,17.7 ,0
2003/12/2,15:30,15.5 ,0,50.0 ,0,18.7 ,0,51.3 ,0,17.3 ,0,18.4 ,0,17.6 ,0
2003/12/2,15:45,15.5 ,0,50.0 ,0,18.8 ,0,52.1 ,0,17.3 ,0,18.3 ,0,17.5 ,0
2003/12/2,16:00,15.6 ,0,52.0 ,0,18.8 ,0,52.2 ,0,17.3 ,0,18.1 ,0,17.3 ,0
2003/12/2,16:15,15.6 ,0,53.0 ,0,18.9 ,0,52.2 ,0,17.3 ,0,18.2 ,0,17.4 ,0
2003/12/2,16:30,15.5 ,0,52.0 ,0,18.9 ,0,52.9 ,0,17.3 ,0,18.3 ,0,17.3 ,0
2003/12/2,16:45,15.4 ,0,54.0 ,0,18.9 ,0,53.6 ,0,17.5 ,0,18.6 ,0,17.3 ,0
2003/12/2,17:00,15.1 ,0,55.0 ,0,18.9 ,0,53.8 ,0,17.5 ,0,18.3 ,0,17.2 ,0
2003/12/2,17:15,14.8 ,0,56.0 ,0,18.9 ,0,54.8 ,0,17.6 ,0,18.3 ,0,17.2 ,0
2003/12/2,17:30,14.6 ,0,56.0 ,0,18.9 ,0,55.3 ,0,17.6 ,0,18.2 ,0,17.1 ,0
2003/12/2,17:45,14.3 ,0,58.0 ,0,18.8 ,0,55.5 ,0,17.6 ,0,18.1 ,0,17.1 ,0
2003/12/2,18:00,14.4 ,0,57.0 ,0,18.7 ,0,55.8 ,0,17.6 ,0,18.0 ,0,17.0 ,0
2003/12/2,18:15,14.4 ,0,57.0 ,0,18.6 ,0,56.4 ,0,17.6 ,0,17.9 ,0,16.9 ,0
2003/12/2,18:30,14.4 ,0,56.0 ,0,18.5 ,0,56.5 ,0,17.6 ,0,17.8 ,0,16.8 ,0
2003/12/2,18:45,14.3 ,0,58.0 ,0,18.5 ,0,56.5 ,0,17.6 ,0,17.7 ,0,16.8 ,0
2003/12/2,19:00,14.3 ,0,59.0 ,0,18.5 ,0,58.6 ,0,17.6 ,0,17.6 ,0,16.8 ,0
2003/12/2,19:15,14.3 ,0,59.0 ,0,18.5 ,0,58.7 ,0,17.6 ,0,17.9 ,0,16.7 ,0
2003/12/2,19:30,14.2 ,0,61.0 ,0,18.5 ,0,59.6 ,0,17.6 ,0,18.2 ,0,16.7 ,0
2003/12/2,19:45,14.1 ,0,61.0 ,0,18.6 ,0,61.2 ,0,17.6 ,0,18.4 ,0,16.6 ,0
2003/12/2,20:00,14.2 ,0,62.0 ,0,18.6 ,0,61.6 ,0,17.6 ,0,18.4 ,0,16.6 ,0
2003/12/2,20:15,14.2 ,0,62.0 ,0,18.6 ,0,61.8 ,0,17.6 ,0,18.3 ,0,16.6 ,0
2003/12/2,20:30,14.3 ,0,61.0 ,0,18.6 ,0,62.1 ,0,17.6 ,0,18.2 ,0,16.6 ,0
2003/12/2,20:45,14.2 ,0,60.0 ,0,18.6 ,0,61.9 ,0,17.7 ,0,18.1 ,0,16.6 ,0
2003/12/2,21:00,14.1 ,0,62.0 ,0,19.0 ,0,66.8 ,0,17.4 ,0,18.5 ,0,16.7 ,0
2003/12/2,21:15,14.0 ,0,64.0 ,0,19.4 ,0,66.2 ,0,17.2 ,0,19.2 ,0,17.1 ,0
2003/12/2,21:30,14.1 ,0,63.0 ,0,19.6 ,0,64.5 ,0,17.2 ,0,19.5 ,0,17.5 ,0
2003/12/2,21:45,14.2 ,0,60.0 ,0,19.8 ,0,63.8 ,0,17.2 ,0,19.8 ,0,17.4 ,0
2003/12/2,22:00,14.1 ,0,60.0 ,0,20.2 ,0,63.6 ,0,17.2 ,0,20.2 ,0,17.3 ,0
2003/12/2,22:15,13.7 ,0,63.0 ,0,20.5 ,0,63.2 ,0,17.2 ,0,20.5 ,0,17.2 ,0
2003/12/2,22:30,12.8 ,0,74.0 ,0,20.8 ,0,62.4 ,0,17.2 ,0,20.8 ,0,17.2 ,0
2003/12/2,22:45,12.2 ,0,76.0 ,0,20.9 ,0,61.5 ,0,17.1 ,0,20.9 ,0,17.2 ,0
2003/12/2,23:00,12.0 ,0,78.0 ,0,21.1 ,0,60.4 ,0,17.1 ,0,21.0 ,0,17.1 ,0
2003/12/2,23:15,12.0 ,0,80.0 ,0,20.8 ,0,56.3 ,0,17.1 ,0,20.9 ,0,16.9 ,0
2003/12/2,23:30,11.7 ,0,82.0 ,0,20.2 ,0,54.6 ,0,17.0 ,0,20.5 ,0,17.2 ,0
2003/12/2,23:45,11.6 ,0,83.0 ,0,19.8 ,0,54.9 ,0,17.0 ,0,20.0 ,0,17.1 ,0
2003/12/3,0:00,11.7 ,0,84.0 ,0,19.6 ,0,55.0 ,0,17.2 ,0,19.6 ,0,17.7 ,0
2003/12/3,0:15,12.0 ,0,83.0 ,0,19.5 ,0,56.5 ,0,17.2 ,0,19.0 ,0,16.1 ,0
2003/12/3,0:30,12.0 ,0,83.0 ,0,19.3 ,0,57.2 ,0,17.2 ,0,18.6 ,0,15.7 ,0
2003/12/3,0:45,12.2 ,0,83.0 ,0,19.2 ,0,57.2 ,0,17.2 ,0,18.5 ,0,16.1 ,0
2003/12/3,1:00,12.1 ,0,83.0 ,0,19.0 ,0,57.5 ,0,17.2 ,0,18.2 ,0,15.8 ,0
2003/12/3,1:15,12.1 ,0,83.0 ,0,18.8 ,0,57.4 ,0,17.2 ,0,18.0 ,0,16.0 ,0
2003/12/3,1:30,12.0 ,0,84.0 ,0,18.6 ,0,57.8 ,0,17.1 ,0,17.8 ,0,16.1 ,0
2003/12/3,1:45,12.1 ,0,84.0 ,0,18.4 ,0,58.1 ,0,17.1 ,0,17.6 ,0,15.9 ,0
2003/12/3,2:00,11.9 ,0,84.0 ,0,18.2 ,0,58.4 ,0,17.1 ,0,17.4 ,0,15.7 ,0
2003/12/3,2:15,12.0 ,0,84.0 ,0,18.0 ,0,58.6 ,0,17.1 ,0,17.3 ,0,15.7 ,0
2003/12/3,2:30,12.1 ,0,82.0 ,0,17.8 ,0,59.2 ,0,17.1 ,0,17.1 ,0,15.6 ,0
2003/12/3,2:45,12.1 ,0,84.0 ,0,17.7 ,0,59.5 ,0,17.1 ,0,17.0 ,0,15.6 ,0
2003/12/3,3:00,11.8 ,0,85.0 ,0,17.6 ,0,59.6 ,0,17.1 ,0,16.9 ,0,15.6 ,0
2003/12/3,3:15,11.5 ,0,84.0 ,0,17.4 ,0,60.0 ,0,17.1 ,0,16.8 ,0,15.5 ,0
2003/12/3,3:30,11.5 ,0,85.0 ,0,17.5 ,0,59.8 ,0,17.1 ,0,16.6 ,0,15.2 ,0
2003/12/3,3:45,11.0 ,0,86.0 ,0,17.4 ,0,59.8 ,0,17.1 ,0,16.5 ,0,15.0 ,0
2003/12/3,4:00,10.8 ,0,89.0 ,0,17.3 ,0,60.0 ,0,17.1 ,0,16.4 ,0,15.0 ,0
2003/12/3,4:15,10.4 ,0,90.0 ,0,17.2 ,0,60.2 ,0,17.0 ,0,16.2 ,0,15.1 ,0
2003/12/3,4:30,10.3 ,0,91.0 ,0,17.0 ,0,60.6 ,0,17.0 ,0,16.0 ,0,15.1 ,0
2003/12/3,4:45,10.2 ,0,93.0 ,0,16.8 ,0,60.9 ,0,17.0 ,0,15.9 ,0,15.0 ,0
2003/12/3,5:00,9.9 ,0,94.0 ,0,16.7 ,0,61.2 ,0,17.0 ,0,15.8 ,0,14.8 ,0
2003/12/3,5:15,9.9 ,0,95.0 ,0,16.5 ,0,61.5 ,0,17.0 ,0,15.6 ,0,14.3 ,0
2003/12/3,5:30,9.7 ,0,95.0 ,0,16.4 ,0,61.8 ,0,17.0 ,0,15.5 ,0,14.5 ,0
2003/12/3,5:45,9.5 ,0,96.0 ,0,16.3 ,0,62.0 ,0,16.9 ,0,15.3 ,0,14.5 ,0
2003/12/3,6:00,9.3 ,0,97.0 ,0,16.1 ,0,62.3 ,0,16.9 ,0,15.2 ,0,14.4 ,0
2003/12/3,6:15,9.3 ,0,98.0 ,0,16.0 ,0,62.6 ,0,16.9 ,0,15.1 ,0,14.3 ,0
2003/12/3,6:30,9.5 ,0,97.0 ,0,15.8 ,0,62.8 ,0,16.9 ,0,14.9 ,0,14.2 ,0
2003/12/3,6:45,9.2 ,0,97.0 ,0,15.7 ,0,63.1 ,0,16.8 ,0,14.9 ,0,14.0 ,0
2003/12/3,7:00,9.4 ,0,98.0 ,0,15.6 ,0,63.3 ,0,16.8 ,0,14.8 ,0,13.9 ,0
2003/12/3,7:15,9.7 ,0,97.0 ,0,15.5 ,0,63.5 ,0,16.8 ,0,14.7 ,0,13.9 ,0
2003/12/3,7:30,9.9 ,0,95.0 ,0,15.3 ,0,63.6 ,0,16.8 ,0,14.6 ,0,13.7 ,0
2003/12/3,7:45,10.4 ,0,92.0 ,0,15.3 ,0,63.7 ,0,16.8 ,0,14.6 ,0,13.6 ,0
2003/12/3,8:00,10.4 ,0,90.0 ,0,15.2 ,0,63.8 ,0,16.7 ,0,14.6 ,0,13.5 ,0
2003/12/3,8:15,10.8 ,0,88.0 ,0,15.2 ,0,63.8 ,0,17.0 ,0,14.5 ,0,13.4 ,0
2003/12/3,8:30,11.2 ,0,85.0 ,0,16.1 ,0,68.5 ,0,16.9 ,0,15.6 ,0,13.4 ,0
2003/12/3,8:45,12.1 ,0,82.0 ,0,16.6 ,0,68.0 ,0,17.3 ,0,16.5 ,0,14.2 ,0
2003/12/3,9:00,12.9 ,0,77.0 ,0,16.8 ,0,67.7 ,0,17.3 ,0,16.9 ,0,14.1 ,0
2003/12/3,9:15,13.7 ,0,73.0 ,0,17.4 ,0,65.8 ,0,17.3 ,0,17.4 ,0,13.8 ,0
2003/12/3,9:30,14.4 ,0,69.0 ,0,17.4 ,0,63.1 ,0,17.2 ,0,17.5 ,0,13.6 ,0
2003/12/3,9:45,15.4 ,0,66.0 ,0,17.6 ,0,62.5 ,0,17.2 ,0,17.7 ,0,13.6 ,0
2003/12/3,10:00,15.9 ,0,63.0 ,0,17.6 ,0,59.8 ,0,17.2 ,0,17.8 ,0,14.2 ,0
2003/12/3,10:15,16.2 ,0,61.0 ,0,17.7 ,0,59.7 ,0,17.1 ,0,17.8 ,0,15.4 ,0
2003/12/3,10:30,15.6 ,0,64.0 ,0,17.9 ,0,59.2 ,0,17.5 ,0,17.9 ,0,15.9 ,0
2003/12/3,10:45,15.4 ,0,64.0 ,0,17.9 ,0,59.6 ,0,17.4 ,0,17.8 ,0,15.9 ,0
2003/12/3,11:00,15.5 ,0,53.0 ,0,17.9 ,0,60.4 ,0,17.4 ,0,17.8 ,0,15.8 ,0
2003/12/3,11:15,16.0 ,0,42.0 ,0,17.9 ,0,60.0 ,0,17.4 ,0,17.7 ,0,15.6 ,0
2003/12/3,11:30,16.4 ,0,38.0 ,0,17.9 ,0,58.1 ,0,17.4 ,0,17.6 ,0,15.4 ,0
2003/12/3,11:45,16.5 ,0,38.0 ,0,18.0 ,0,54.4 ,0,17.4 ,0,17.5 ,0,15.6 ,0
2003/12/3,12:00,16.3 ,0,37.0 ,0,18.1 ,0,51.8 ,0,17.4 ,0,17.5 ,0,15.7 ,0
2003/12/3,12:15,16.6 ,0,38.0 ,0,18.3 ,0,51.8 ,0,17.3 ,0,17.6 ,0,16.0 ,0
2003/12/3,12:30,16.3 ,0,38.0 ,0,18.2 ,0,50.5 ,0,17.3 ,0,17.6 ,0,16.1 ,0
2003/12/3,12:45,16.3 ,0,42.0 ,0,18.5 ,0,50.4 ,0,17.3 ,0,17.6 ,0,16.3 ,0
2003/12/3,13:00,16.1 ,0,48.0 ,0,18.4 ,0,47.7 ,0,17.3 ,0,17.7 ,0,16.2 ,0
2003/12/3,13:15,15.8 ,0,49.0 ,0,18.4 ,0,48.6 ,0,17.3 ,0,17.7 ,0,16.4 ,0
2003/12/3,13:30,15.9 ,0,47.0 ,0,18.5 ,0,50.6 ,0,17.3 ,0,17.8 ,0,16.4 ,0
2003/12/3,13:45,15.8 ,0,48.0 ,0,18.6 ,0,51.5 ,0,17.3 ,0,17.7 ,0,16.3 ,0
2003/12/3,14:00,15.8 ,0,47.0 ,0,18.6 ,0,49.4 ,0,17.3 ,0,17.6 ,0,16.1 ,0
2003/12/3,14:15,15.5 ,0,47.0 ,0,18.6 ,0,49.3 ,0,17.3 ,0,17.6 ,0,16.2 ,0
2003/12/3,14:30,15.4 ,0,46.0 ,0,18.6 ,0,49.3 ,0,17.3 ,0,17.5 ,0,16.1 ,0
2003/12/3,14:45,15.4 ,0,46.0 ,0,18.5 ,0,48.6 ,0,17.3 ,0,17.4 ,0,16.0 ,0
2003/12/3,15:00,15.4 ,0,46.0 ,0,18.5 ,0,49.1 ,0,17.3 ,0,17.4 ,0,16.0 ,0
2003/12/3,15:15,15.2 ,0,44.0 ,0,18.6 ,0,50.3 ,0,17.3 ,0,17.7 ,0,16.1 ,0
2003/12/3,15:30,15.4 ,0,43.0 ,0,18.6 ,0,49.1 ,0,17.3 ,0,17.7 ,0,16.1 ,0
2003/12/3,15:45,15.3 ,0,41.0 ,0,18.5 ,0,47.4 ,0,17.4 ,0,17.6 ,0,16.0 ,0
2003/12/3,16:00,15.2 ,0,42.0 ,0,18.5 ,0,48.0 ,0,17.4 ,0,17.5 ,0,16.1 ,0
2003/12/3,16:15,15.1 ,0,41.0 ,0,18.5 ,0,47.7 ,0,17.4 ,0,17.4 ,0,15.9 ,0
2003/12/3,16:30,14.9 ,0,41.0 ,0,18.4 ,0,46.7 ,0,17.4 ,0,17.3 ,0,15.9 ,0
2003/12/3,16:45,14.7 ,0,43.0 ,0,18.3 ,0,46.4 ,0,17.4 ,0,17.2 ,0,15.7 ,0
2003/12/3,17:00,14.6 ,0,43.0 ,0,18.2 ,0,47.2 ,0,17.4 ,0,17.1 ,0,15.9 ,0
2003/12/3,17:15,14.1 ,0,44.0 ,0,18.2 ,0,47.7 ,0,17.4 ,0,17.0 ,0,15.7 ,0
2003/12/3,17:30,13.8 ,0,46.0 ,0,18.0 ,0,47.2 ,0,17.4 ,0,16.9 ,0,15.3 ,0
2003/12/3,17:45,13.3 ,0,51.0 ,0,17.9 ,0,47.5 ,0,17.5 ,0,16.8 ,0,15.0 ,0
2003/12/3,18:00,13.1 ,0,52.0 ,0,17.8 ,0,47.4 ,0,17.5 ,0,16.6 ,0,14.7 ,0
2003/12/3,18:15,12.9 ,0,54.0 ,0,17.7 ,0,47.4 ,0,17.5 ,0,16.4 ,0,14.3 ,0
2003/12/3,18:30,12.8 ,0,54.0 ,0,17.5 ,0,48.5 ,0,17.3 ,0,16.3 ,0,14.2 ,0
2003/12/3,18:45,12.7 ,0,54.0 ,0,17.4 ,0,50.3 ,0,17.4 ,0,16.2 ,0,14.7 ,0
2003/12/3,19:00,12.2 ,0,58.0 ,0,17.3 ,0,51.6 ,0,17.4 ,0,16.2 ,0,14.8 ,0
2003/12/3,19:15,12.0 ,0,60.0 ,0,17.4 ,0,52.2 ,0,17.3 ,0,16.1 ,0,14.9 ,0
2003/12/3,19:30,11.6 ,0,64.0 ,0,17.2 ,0,52.3 ,0,17.3 ,0,15.9 ,0,15.0 ,0
2003/12/3,19:45,11.3 ,0,66.0 ,0,17.2 ,0,54.1 ,0,17.4 ,0,15.8 ,0,15.0 ,0
2003/12/3,20:00,11.0 ,0,67.0 ,0,17.1 ,0,53.9 ,0,17.5 ,0,15.6 ,0,15.0 ,0
2003/12/3,20:15,10.2 ,0,72.0 ,0,17.3 ,0,57.5 ,0,17.5 ,0,16.5 ,0,15.0 ,0
2003/12/3,20:30,9.9 ,0,75.0 ,0,17.7 ,0,55.9 ,0,17.5 ,0,17.7 ,0,15.0 ,0
2003/12/3,20:45,9.7 ,0,78.0 ,0,17.8 ,0,55.3 ,0,17.5 ,0,18.1 ,0,15.6 ,0
2003/12/3,21:00,9.4 ,0,79.0 ,0,18.0 ,0,56.2 ,0,17.5 ,0,18.3 ,0,15.4 ,0
2003/12/3,21:15,9.5 ,0,80.0 ,0,18.3 ,0,58.1 ,0,17.5 ,0,18.8 ,0,15.2 ,0
2003/12/3,21:30,9.3 ,0,81.0 ,0,18.6 ,0,56.7 ,0,17.5 ,0,19.0 ,0,15.1 ,0
2003/12/3,21:45,9.2 ,0,82.0 ,0,18.7 ,0,56.2 ,0,17.5 ,0,19.2 ,0,15.1 ,0
2003/12/3,22:00,9.1 ,0,83.0 ,0,18.7 ,0,54.6 ,0,17.5 ,0,19.2 ,0,15.1 ,0
2003/12/3,22:15,8.9 ,0,84.0 ,0,18.8 ,0,54.6 ,0,17.5 ,0,19.1 ,0,15.1 ,0
2003/12/3,22:30,8.8 ,0,85.0 ,0,18.8 ,0,53.1 ,0,17.5 ,0,19.0 ,0,14.9 ,0
2003/12/3,22:45,8.7 ,0,87.0 ,0,18.8 ,0,53.5 ,0,17.2 ,0,19.0 ,0,14.9 ,0
2003/12/3,23:00,8.6 ,0,87.0 ,0,18.5 ,0,51.3 ,0,17.2 ,0,18.5 ,0,14.8 ,0
2003/12/3,23:15,8.6 ,0,87.0 ,0,18.3 ,0,51.7 ,0,17.2 ,0,17.9 ,0,14.7 ,0
2003/12/3,23:30,8.4 ,0,86.0 ,0,18.2 ,0,56.4 ,0,17.2 ,0,17.7 ,0,14.6 ,0
2003/12/3,23:45,8.4 ,0,88.0 ,0,18.1 ,0,58.6 ,0,17.2 ,0,17.6 ,0,14.6 ,0
2003/12/4,0:00,8.4 ,0,87.0 ,0,17.9 ,0,56.4 ,0,17.1 ,0,17.3 ,0,14.5 ,0
2003/12/4,0:15,8.4 ,0,87.0 ,0,17.5 ,0,55.4 ,0,17.1 ,0,16.8 ,0,14.4 ,0
2003/12/4,0:30,8.1 ,0,87.0 ,0,17.3 ,0,55.7 ,0,17.1 ,0,16.6 ,0,14.4 ,0
2003/12/4,0:45,8.1 ,0,88.0 ,0,17.1 ,0,55.9 ,0,17.1 ,0,16.4 ,0,14.5 ,0
2003/12/4,1:00,8.0 ,0,89.0 ,0,16.8 ,0,56.2 ,0,17.1 ,0,16.1 ,0,14.4 ,0
2003/12/4,1:15,7.8 ,0,89.0 ,0,16.5 ,0,56.2 ,0,17.1 ,0,15.8 ,0,14.5 ,0
2003/12/4,1:30,7.6 ,0,90.0 ,0,16.3 ,0,56.4 ,0,17.1 ,0,15.5 ,0,14.5 ,0
2003/12/4,1:45,7.7 ,0,90.0 ,0,16.0 ,0,56.6 ,0,17.1 ,0,15.3 ,0,14.3 ,0
2003/12/4,2:00,7.6 ,0,89.0 ,0,15.8 ,0,57.2 ,0,17.1 ,0,15.1 ,0,14.3 ,0
2003/12/4,2:15,7.4 ,0,89.0 ,0,15.6 ,0,58.6 ,0,17.0 ,0,15.0 ,0,14.4 ,0
2003/12/4,2:30,7.3 ,0,89.0 ,0,15.4 ,0,59.8 ,0,17.0 ,0,14.9 ,0,14.3 ,0
2003/12/4,2:45,7.3 ,0,90.0 ,0,15.3 ,0,59.5 ,0,17.0 ,0,14.7 ,0,14.1 ,0
2003/12/4,3:00,7.3 ,0,89.0 ,0,15.1 ,0,59.8 ,0,17.0 ,0,14.5 ,0,13.9 ,0
2003/12/4,3:15,7.2 ,0,89.0 ,0,14.9 ,0,60.0 ,0,16.9 ,0,14.4 ,0,13.8 ,0
2003/12/4,3:30,7.0 ,0,90.0 ,0,14.8 ,0,60.3 ,0,16.9 ,0,14.3 ,0,13.7 ,0
2003/12/4,3:45,6.9 ,0,91.0 ,0,14.6 ,0,60.6 ,0,16.9 ,0,14.1 ,0,13.6 ,0
2003/12/4,4:00,6.9 ,0,90.0 ,0,14.5 ,0,60.9 ,0,16.9 ,0,14.0 ,0,13.5 ,0
2003/12/4,4:15,6.8 ,0,89.0 ,0,14.4 ,0,61.2 ,0,16.9 ,0,13.9 ,0,13.4 ,0
2003/12/4,4:30,6.7 ,0,89.0 ,0,14.3 ,0,61.3 ,0,16.8 ,0,13.8 ,0,13.3 ,0
2003/12/4,4:45,6.7 ,0,90.0 ,0,14.1 ,0,61.6 ,0,16.8 ,0,13.7 ,0,13.2 ,0
2003/12/4,5:00,6.7 ,0,91.0 ,0,14.1 ,0,61.7 ,0,16.8 ,0,13.5 ,0,13.1 ,0
2003/12/4,5:15,6.5 ,0,90.0 ,0,13.9 ,0,62.1 ,0,16.8 ,0,13.5 ,0,13.0 ,0
2003/12/4,5:30,6.4 ,0,91.0 ,0,13.8 ,0,62.4 ,0,16.8 ,0,13.4 ,0,12.9 ,0
2003/12/4,5:45,6.4 ,0,91.0 ,0,13.7 ,0,62.8 ,0,16.7 ,0,13.3 ,0,12.8 ,0
2003/12/4,6:00,6.1 ,0,91.0 ,0,13.6 ,0,63.0 ,0,16.7 ,0,13.2 ,0,12.7 ,0
2003/12/4,6:15,6.1 ,0,93.0 ,0,13.5 ,0,63.2 ,0,16.7 ,0,13.1 ,0,12.7 ,0
2003/12/4,6:30,6.0 ,0,93.0 ,0,13.4 ,0,63.5 ,0,16.6 ,0,13.0 ,0,12.6 ,0
2003/12/4,6:45,5.8 ,0,94.0 ,0,13.3 ,0,63.6 ,0,16.6 ,0,12.8 ,0,12.5 ,0
2003/12/4,7:00,5.8 ,0,94.0 ,0,13.1 ,0,63.9 ,0,16.6 ,0,12.7 ,0,12.4 ,0
2003/12/4,7:15,6.0 ,0,93.0 ,0,13.0 ,0,64.1 ,0,16.5 ,0,12.6 ,0,12.3 ,0
2003/12/4,7:30,5.9 ,0,91.0 ,0,12.9 ,0,64.2 ,0,16.5 ,0,12.5 ,0,12.2 ,0
2003/12/4,7:45,6.1 ,0,87.0 ,0,12.8 ,0,64.5 ,0,16.5 ,0,12.4 ,0,12.1 ,0
2003/12/4,8:00,6.2 ,0,85.0 ,0,12.7 ,0,64.5 ,0,16.4 ,0,12.4 ,0,12.0 ,0
2003/12/4,8:15,6.5 ,0,84.0 ,0,12.7 ,0,64.6 ,0,16.4 ,0,12.3 ,0,12.0 ,0
2003/12/4,8:30,7.1 ,0,82.0 ,0,13.0 ,0,66.5 ,0,16.8 ,0,12.8 ,0,11.9 ,0
2003/12/4,8:45,7.9 ,0,79.0 ,0,13.7 ,0,68.1 ,0,16.8 ,0,14.6 ,0,11.8 ,0
2003/12/4,9:00,9.1 ,0,73.0 ,0,14.2 ,0,66.2 ,0,16.8 ,0,15.7 ,0,12.2 ,0
2003/12/4,9:15,9.9 ,0,68.0 ,0,14.3 ,0,57.4 ,0,17.2 ,0,15.6 ,0,12.7 ,0
2003/12/4,9:30,11.0 ,0,65.0 ,0,14.6 ,0,61.3 ,0,17.1 ,0,15.8 ,0,12.9 ,0
2003/12/4,9:45,11.9 ,0,61.0 ,0,14.9 ,0,60.3 ,0,17.1 ,0,15.9 ,0,13.6 ,0
2003/12/4,10:00,12.3 ,0,60.0 ,0,15.2 ,0,55.3 ,0,17.1 ,0,15.6 ,0,13.4 ,0